User: anonymous
Location: Unspecified
(0.0000°N, 0.0000°E)
Time: 23:31:48
(UTC+02:00)
Language:

Cosmos 1151 - Orbit

View from above orbital plane
View from above orbital plane
View from above satellite
View from above satellite

Ground track
Ground track

The orbit data is extracted from the following two-line orbital elements,

1 11671U 80005A   14113.82119528  .00131508  00000-0  78380-3 0  4166
2 11671 082.4685 016.9787 0005787 127.1494 274.6600 15.77515705879589
Epoch (UTC): 23 April 2014 19:42:31
Eccentricity: 0.0005787
inclination: 82.4685°
perigee height: 333 km
apogee height: 341 km
right ascension of ascending node: 16.9787°
argument of perigee: 127.1494°
revolutions per day: 15.77515705
mean anomaly at epoch: 274.6600°
orbit number at epoch: 87958

The dashed part of the orbit path shows where the satellite is in the earth's shadow,  

DLR